Location: Rosenheim
(47.8408°N, 12.2113°E)
Time: 08:49:35
(UTC+01:00)

Tiangong 2 - Visible Passes

Search period start: 19 February 2018 00:00
Search period end: 01 March 2018 00:00
Orbit: 384 x 388 km, 42.8° (Epoch: 18 February)

Date Brightness Start Highest point End Pass type
(mag) Time Alt. Az. Time Alt. Az. Time Alt. Az.
19 Feb 3.0 19:12:32 10° WSW 19:15:06 23° SSW 19:16:19 18° SSE visible
20 Feb 2.8 18:13:32 10° WSW 18:16:19 28° S 18:19:06 10° SE visible
20 Feb 3.9 19:51:13 10° SW 19:52:28 12° SSW 19:52:36 12° SSW visible
21 Feb 3.6 18:51:36 10° WSW 18:53:45 17° SSW 18:55:54 10° SSE visible
23 Feb 4.1 18:31:09 10° SW 18:32:20 12° SSW 18:33:31 10° S visible
